TIME,DELAY(SENSOR),PRES,T(CTD),SAL,OXYGEN,RAWTEMP,T(OPTODE),TCPHASE,FLUOR,BETA(BETA700),BETA(BETA412),BETA(BETA440),CDOM,C(CSC),ED(ED412.40),ED(ED444.00),ED(ED489.70),ED(ED554.30),LU(LU411.80),LU(LU443.40),LU(LU489.60),LU(LU554.10),COMP,TILTX,TILTX(TILTY),CHECK
1338931515,5810,496.8900146484375000,6.9010000228881840,34.1572990417480500,76.3506317138671900,590.8076782226562000,6.8808097839355470,49.2115783691406250,52,104,92,80,81,15337,2147747949,2147424027,2148002614,2147874596,2147630820,2147077814,2148242258,2147203958,48,4,13,44374
1338931645,5808,486.0400085449219000,7.0602002143859860,34.1442985534668000,84.7025070190429700,585.8283081054688000,7.0411190986633300,48.1558685302734400,53,104,88,80,80,15337,2147746998,2147425417,2148002560,2147873974,2147628160,2147080082,2148238747,2147202112,203,4,13,14324
1338931784,5811,475.2399902343750000,7.1395001411437990,34.1342010498046900,92.7378997802734400,583.3527221679688000,7.1207327842712400,47.2158584594726560,51,106,91,81,81,15338,2147748150,2147425289,2148000685,2147874176,2147629558,2147082121,2148245942,2147202221,393,4,13,49198
1338931944,5808,462.6199951171875000,7.3849000930786130,34.1067008972168000,104.2498016357421900,575.9398193359375000,7.3587970733642580,45.8718910217285160,50,106,88,81,80,15339,2147745910,2147422144,2148000804,2147876827,2147626934,2147080219,2148241389,2147204388,203,5,13,20216
1338932071,5806,451.5599975585937500,7.4228000640869140,34.1069984436035160,114.5664978027343800,574.4619750976562000,7.4061989784240720,44.8139381408691400,50,105,88,81,80,15337,2147745892,2147420882,2148000832,2147875117,2147627867,2147086528,2148240210,2147203785,123,4,13,30373
1338932200,5809,440.4400024414062500,7.6922998428344730,34.1034011840820300,120.7604980468750000,565.6904296875000000,7.6871509552001950,44.0736694335937500,50,105,91,80,78,15337,2147747218,2147420964,2148001481,2147872484,2147626322,2147083309,2148244763,2147202569,780,4,13,16472
1338932327,5808,429.9100036621094000,8.0612001419067380,34.1013984680175800,133.2322998046875000,554.6455078125000000,8.0399761199951170,42.7433700561523440,50,106,91,79,77,15335,2147744137,2147422244,2148003849,2147874139,2147623926,2147081782,2148236745,2147203858,756,4,13,37007
1338932454,5808,419.0599975585937500,8.3097000122070310,34.1068992614746100,142.3731994628906200,546.2014770507812000,8.3090248107910160,41.8064193725585940,51,108,86,80,77,15333,2147744676,2147424740,2147999049,2147871826,2147622756,2147085522,2148239460,2147206848,1031,4,13,25539
1338932572,5810,408.2099914550781000,8.4966001510620120,34.1030006408691400,149.8141937255859400,540.8513793945312000,8.4791908264160160,41.0964088439941400,50,106,88,79,77,15335,2147744896,2147420498,2148001545,2147874733,2147621165,2147092699,2148235017,2147203510,1639,4,13,31877
1338932687,5810,397.0499877929687500,8.8236999511718750,34.1026000976562500,158.8504943847656200,530.3491210937500000,8.8125667572021480,40.1979408264160160,50,106,89,81,75,15334,2147741211,2147424749,2148002752,2147873984,2147620928,2147092598,2148231652,2147203547,2787,4,13,3602
1338932802,5810,385.5799865722656000,9.0429000854492190,34.1178016662597660,162.3941955566406200,523.5015258789062000,9.0294723510742190,39.8079109191894500,50,108,89,80,75,15331,2147738148,2147421952,2148001846,2147869878,2147618788,2147094390,2148233773,2147204928,3441,4,13,11205
1338932908,5810,375.3399963378906000,9.2411003112792970,34.1115989685058600,170.4246063232422000,516.4495239257812000,9.2524766921997070,39.0895309448242200,50,106,88,81,75,15336,2147740242,2147422290,2147999469,2147872228,2147619437,2147098550,2148229595,2147205952,705,4,13,28694
1338933035,5809,364.3599853515625000,9.6154003143310550,34.1234016418457000,180.6316986083984400,505.3601989746094000,9.6024198532104500,38.1769599914550800,50,106,89,81,74,15332,2147737097,2147421248,2147998902,2147871753,2147617014,2147096557,2148225362,2147204955,994,4,13,16925
1338933176,5808,353.3900146484375000,9.7490997314453120,34.1282997131347660,184.7841033935547000,500.9039001464844000,9.7427959442138670,37.8201217651367200,50,106,92,80,74,15333,2147736009,2147422098,2147994697,2147872009,2147614765,2147101915,2148227904,2147206336,996,4,14,2476
1338933327,5808,342.6300048828125000,10.0160999298095700,34.1356010437011700,191.0930938720703000,492.5072021484375000,10.0069303512573240,37.2610588073730500,50,107,87,80,73,15334,2147736438,2147421604,2148000384,2147873938,2147615131,2147100745,2148223113,2147204964,3292,4,13,54367
1338933499,5808,329.9800109863281000,10.1583003997802730,34.1394004821777340,196.2481994628906200,487.7755126953125000,10.1555595397949220,36.8514709472656250,49,108,91,80,72,15331,2147735296,2147424210,2148001828,2147873197,2147609142,2147108425,2148222043,2147202660,2901,4,14,57158
1338933614,5809,319.5899963378906000,10.4932003021240230,34.1520996093750000,202.7958984375000000,477.5798034667969000,10.4753198623657230,36.2757415771484400,50,107,87,81,72,15331,2147734153,2147424201,2148004726,2147872036,2147609764,2147106240,2148225152,2147207826,19,4,13,60952
1338933741,5810,307.8800048828125000,10.9651002883911130,34.1679000854492200,196.9920959472656200,462.1733093261719000,10.9572496414184570,36.3787803649902340,49,112,90,81,72,15327,2147733897,2147424365,2148006710,2147874121,2147610633,2147110811,2148224978,2147210660,1088,4,14,565
1338933859,5809,297.5899963378906000,11.6457996368408200,34.2023010253906250,192.6320037841797000,440.5556030273437500,11.6311101913452150,36.3006591796875000,48,113,91,82,72,15323,2147731392,2147426797,2148008402,2147876726,2147606628,2147119104,2148220699,2147207405,1293,4,13,50226
1338933998,5808,286.0899963378906000,11.8306999206542970,34.2146987915039060,195.1562042236328000,434.2128906250000000,11.8283300399780270,36.0377388000488300,50,111,89,82,71,15323,2147731666,2147429403,2148015524,2147875044,2147608173,2147112265,2148224740,2147207643,225,3,14,62318
1338934127,5807,275.8299865722656000,12.1246995925903320,34.2274017333984400,199.7886047363281200,424.9151916503906000,12.1170501708984380,35.6009902954101560,50,111,89,82,71,15321,2147731922,2147428352,2148020406,2147872566,2147600448,2147123757,2148224274,2147205677,310,4,14,35919
1338934266,5811,264.4899902343750000,12.8018999099731450,34.2619018554687500,200.6705932617187500,402.9895935058594000,12.7962198257446290,35.1999702453613300,48,111,91,81,70,15321,2147728685,2147436937,2148036699,2147872027,2147599853,2147129435,2148234660,2147208466,1540,4,14,35947
1338934438,5809,250.8999938964843800,13.8144998550415040,34.3375015258789060,199.2566070556640600,370.1025085449219000,13.8109903335571290,34.7749710083007800,49,111,89,82,71,15317,2147725357,2147432594,2148027456,2147874112,2147594989,2147130742,2148217115,2147211181,1742,3,14,245
1338934552,5808,240.4499969482422000,14.4239997863769530,34.3894996643066400,200.2015991210937500,349.8163146972656000,14.4349403381347660,34.4085884094238300,50,110,92,81,70,15316,2147728740,2147445522,2148070061,2147872969,2147591341,2147146797,2148236297,2147212781,1879,3,14,49256
1338934679,5806,229.0099945068359400,15.0174999237060550,34.4455986022949200,202.1045989990234400,330.7597961425781000,15.0199003219604500,34.0083198547363300,50,112,88,81,69,15315,2147725120,2147460416,2148097261,2147870710,2147587867,2147157065,2148243940,2147215259,1038,3,13,21366
1338934797,5807,218.7500000000000000,15.8508996963500980,34.5232009887695300,202.7407989501953000,304.3146972656250000,15.8301296234130860,33.5793991088867200,50,110,88,80,70,15315,2147724425,2147470235,2148115328,2147871771,2147587154,2147170514,2148251309,2147216192,1271,3,14,10905
1338934948,5808,207.9400024414062500,17.2541999816894530,34.6834983825683600,205.9777984619140600,258.4325866699219000,17.2329692840576170,32.7296218872070300,53,108,90,80,67,15309,2147730368,2147500205,2148180909,2147873243,2147583771,2147188379,2148276964,2147220022,409,3,15,18896
1338935107,5804,198.4299926757812500,17.7082004547119140,34.7322006225585940,207.6990051269531200,243.7875976562500000,17.6802806854248050,32.4250297546386700,56,112,88,81,67,15308,2147734464,2147544374,2148277211,2147873929,2147583259,2147224630,2148315593,2147224649,3163,3,15,7374
1338935186,5804,194.3699951171875000,18.6357002258300780,34.8224983215332000,205.9900970458984400,217.6587982177734400,18.4782199859619140,32.1563987731933600,62,114,86,83,67,15300,2147758518,2147627757,2148467611,2147872960,2147591387,2147268598,2148400850,2147227565,515,3,15,33802
1338935277,5810,191.0800018310547000,18.9074001312255860,34.8713989257812500,207.1804962158203000,204.5646057128906200,18.8781509399414060,31.9079093933105470,72,121,90,81,65,15291,2147771510,2147687835,2148591286,2147873490,2147595721,2147302884,2148452269,2147229440,74,3,14,51365
1338935406,5804,187.0700073242187500,19.2992000579834000,34.9192008972168000,208.5991058349609400,191.8654022216797000,19.2661094665527340,31.6547508239746100,77,117,92,82,66,15281,2147782939,2147712886,2148630628,2147876480,2147596662,2147315501,2148467053,2147231378,2603,2,15,26967
1338935569,5805,183.2700042724609400,19.5121994018554700,34.9410018920898440,210.6654052734375000,184.0906982421875000,19.5037097930908200,31.4356098175048830,80,117,94,84,66,15284,2147792630,2147750299,2148702784,2147875840,2147599433,2147344813,2148506093,2147239606,2641,3,15,28498
1338935692,5806,178.5700073242187500,19.8043994903564450,34.9677009582519500,211.2783050537109400,175.5744934082031200,19.7640495300292970,31.2865600585937500,84,123,94,83,66,15275,2147867328,2147982601,2149178148,2147875318,2147626166,2147453458,2148708918,2147252260,1842,3,15,47230
1338935771,5810,174.4600067138672000,20.0226001739501950,34.9873008728027340,211.5467071533203000,167.7373962402343800,20.0037097930908200,31.1662807464599600,86,119,89,84,65,15271,2147921590,2148112128,2149417764,2147879259,2147644937,2147528310,2148803419,2147258285,2358,2,15,13800
1338935850,5803,170.7200012207031200,20.2028999328613280,35.0056991577148440,212.4515075683593800,162.3883972167968800,20.1673393249511720,31.0457000732421880,92,121,92,83,65,15267,2147965522,2148213540,2149593819,2147881408,2147662555,2147574436,2148872448,2147267008,1317,3,16,40403
1338935955,5805,166.9600067138672000,20.5258998870849600,35.0424995422363300,213.1584930419922000,151.7243041992187500,20.4937191009521500,30.8652896881103500,99,121,92,83,64,15256,2148052955,2148409572,2149945270,2147884553,2147690102,2147672978,2149023844,2147279460,1523,2,15,7486
1338936106,5806,163.4700012207031200,20.7408008575439450,35.0679016113281250,216.1950073242187500,144.2621002197265600,20.7222404479980470,30.6057090759277340,107,121,89,83,64,15252,2148063643,2148385508,2149846171,2147883648,2147692800,2147633773,2148922230,2147271570,3362,2,16,1742
1338936305,5806,158.9799957275390600,21.0396995544433600,35.0886001586914060,218.1813964843750000,134.3554992675781200,21.0258007049560550,30.3715991973876950,113,124,94,84,64,15242,2147987693,2148107373,2149219053,2147878582,2147668132,2147510098,2148684653,2147256173,1900,2,16,1046
1338936408,5806,154.5899963378906200,21.3509998321533200,35.1287994384765600,221.5686035156250000,124.3171997070312500,21.3336391448974600,30.0672798156738280,107,129,93,84,63,15238,2148348370,2148901833,2150654966,2147889874,2147801453,2147877531,2149256621,2147301065,1506,2,16,3885
1338936499,5811,150.1699981689453000,21.4762001037597660,35.1346015930175800,224.0480041503906200,120.1240997314453100,21.4623107910156250,29.8881607055664060,115,127,95,84,63,15231,2148200118,2148486665,2149817362,2147883117,2147751213,2147689289,2148916900,2147277339,1055,2,16,24771
1338936568,5811,146.6199951171875000,21.7341003417968750,35.1369018554687500,224.2178955078125000,112.0736999511718800,21.7094898223876950,29.7752799987792970,129,125,94,84,64,15224,2148297069,2148659922,2150079652,2147886006,2147786176,2147769078,2149028068,2147285430,1342,2,16,16724
1338936659,5811,142.9499969482422000,21.8915004730224600,35.1445999145507800,225.7449951171875000,106.8395996093750000,21.8702907562255860,29.6321907043457030,134,131,93,84,63,15216,2148626788,2149295387,2151151360,2147897124,2147916617,2148066496,2149464996,2147322194,1590,2,16,7685
1338936774,5809,139.1300048828125000,21.9808998107910160,35.1470985412597660,227.2890014648437500,103.6587982177734400,21.9680595397949220,29.5154991149902340,130,127,91,83,63,15204,2148699492,2149376118,2151213686,2147898285,2147944832,2148085366,2149467821,2147320338,854,2,15,59149
1338936924,5809,135.0299987792968800,22.2479000091552730,35.1586990356445300,230.2613067626953000,95.0602035522461000,22.2325191497802730,29.2616806030273440,134,129,93,83,60,15207,2148997513,2149870857,2151923529,2147906944,2148060928,2148294400,2149746413,2147341860,641,2,16,33891
1338937039,5807,130.9600067138672000,22.3654003143310550,35.1534004211425800,233.0794982910156200,91.1099472045898400,22.3540897369384770,29.0775508880615230,139,127,93,85,61,15202,2149365458,2150449261,2152725184,2147914843,2148219456,2148546962,2150058377,2147370176,44,2,15,42479
1338937154,5805,126.8099975585937500,22.4034004211425780,35.1537017822265600,234.3854064941406200,89.7482376098632800,22.3960208892822270,28.9990005493164060,139,127,91,84,61,15192,2149084425,2149801920,2151493632,2147904868,2148113782,2148259309,2149564105,2147332205,2528,2,16,2153
1338937256,5806,122.5000000000000000,22.5200996398925780,35.1515998840332000,234.9929046630859400,86.0124130249023400,22.5110607147216800,28.9233093261718750,141,131,93,85,62,15183,2150387126,2151938029,2154523702,2147946825,2148644617,2149192100,2150768530,2147435968,1442,2,16,51627
1338937347,5808,118.4800033569336000,22.5783996582031250,35.1556015014648440,235.7633056640625000,83.9706115722656200,22.5739593505859380,28.8614997863769530,150,130,93,85,62,15166,2151154989,2152988242,2155696100,2147962331,2148944960,2149600210,2151186486,2147475328,1561,2,16,2991
1338937438,5809,114.4300003051757800,22.6191997528076170,35.1608009338378900,236.1587982177734400,82.6533432006836000,22.6145496368408200,28.8265495300292970,153,130,93,85,62,15156,2152329133,2154625664,2157495698,2147990628,2149395236,2150224073,2151835977,2147542043,1552,2,16,452
1338937519,5806,110.7699966430664000,22.8057003021240230,35.1604995727539060,236.9122924804687500,76.7036972045898400,22.7979602813720700,28.7165908813476560,145,128,92,84,60,15152,2154942272,2158531858,2162282980,2148076361,2150432411,2151799149,2153658139,2147709348,973,2,15,14481
1338937610,5811,106.8199996948242200,22.8540992736816400,35.1565017700195300,238.2998962402343800,75.1508865356445300,22.8458499908447270,28.6334590911865230,133,128,93,85,62,15160,2157293714,2161865462,2165950482,2148156388,2151411977,2153152365,2155038537,2147849508,233,2,16,23639
1338937701,5809,102.5699996948242200,22.9458007812500000,35.1562995910644500,239.1571960449218800,72.1125411987304700,22.9395809173584000,28.5562191009521500,122,125,92,85,61,15171,2157077275,2160974738,2164002733,2148137737,2151519158,2153069568,2154626459,2147819995,137,2,16,42197
1338937792,5807,98.8300018310546900,23.0272998809814450,35.1585006713867200,239.9606018066406200,69.3294982910156200,23.0254707336425780,28.4846191406250000,104,124,91,86,60,15181,2160519725,2165645796,2169079186,2148264246,2153235849,2155465088,2157023817,2148048548,3150,2,16,21304
1338937850,5809,96.8799972534179700,23.0897998809814450,35.1603012084960940,240.5195007324218800,67.5309066772461000,23.0809993743896500,28.4369907379150400,95,124,93,85,61,15186,2161489846,2166702893,2169871872,2148304704,2153787922,2156130496,2157523702,2148093366,3410,2,16,53422
1338937917,5809,95.1200027465820300,23.1009998321533200,35.1595993041992200,241.0458068847656200,66.9727935791015600,23.0982303619384770,28.4062900543212900,90,123,92,84,61,15188,2163943076,2169911515,2173256128,2148405513,2155095478,2157912091,2159163446,2148257874,3183,1,16,20141
1338937996,5809,93.4000015258789000,23.2830009460449220,35.1786994934082000,241.5261993408203000,61.9853897094726560,23.2522792816162100,28.3222808837890620,82,125,94,85,59,15190,2167353874,2174437604,2178003355,2148549805,2157022208,2160538962,2161625005,2148480155,3096,2,16,30524
1338938111,5807,91.4300003051757800,23.3920993804931640,35.1988983154296900,241.8475952148437500,58.3814392089843750,23.3636608123779300,28.2629108428955080,82,123,94,85,60,15190,2166828882,2172984576,2175656310,2148527122,2157188900,2160443218,2161044032,2148429595,106,2,16,47605
1338938201,5809,88.4400024414062500,23.4449005126953120,35.2055015563964840,242.3410949707031200,55.3092498779296900,23.4586601257324220,28.2027397155761720,77,125,93,85,60,15184,2167618532,2173105371,2174870555,2148554468,2158004562,2161118144,2161125988,2148443501,994,2,17,8970
1338938256,5807,85.5699996948242200,23.5466003417968750,35.1963005065918000,242.1775054931640600,53.0185394287109400,23.5295200347900400,28.1813697814941400,75,125,94,84,60,15187,2170174601,2175764662,2177127003,2148683913,2159630710,2162982710,2162502948,2148586486,1045,2,16,3349
1338938311,5806,82.6100006103515600,23.6130008697509770,35.1996994018554700,242.3636016845703000,50.4381904602050800,23.6093692779541000,28.1411991119384770,73,123,92,85,59,15187,2180753920,2188807286,2190668754,2149279835,2165680429,2170771401,2169444754,2149270418,972,2,16,14336
1338938366,5808,79.5299987792968800,23.6711006164550780,35.2094993591308600,242.2602996826172000,48.5428314208984400,23.6680393218994140,28.1220493316650400,71,124,93,85,61,15191,2179779346,2186408347,2187228050,2149255396,2165668800,2170125010,2168295570,2149173732,524,2,16,19411
1338938421,5808,76.3099975585937500,23.7691993713378900,35.2271003723144500,242.0740966796875000,45.4077987670898440,23.7651195526123050,28.0916004180908200,71,121,93,86,59,15192,2187053092,2194458678,2194928832,2149765659,2170278235,2175513709,2172630080,2149636342,3557,1,16,34818
1338938479,5805,72.9899978637695300,23.7339000701904300,35.1935005187988300,242.6419982910156200,46.5690917968750000,23.7291507720947270,28.0806407928466800,70,123,91,85,57,15176,2193817517,2201576429,2201463341,2150287808,2174871222,2180606674,2176514157,2150069074,2896,2,16,36359
1338938534,5810,70.0000000000000000,23.6763000488281250,35.1419982910156250,243.7619018554687500,47.9859886169433600,23.6852798461914060,28.0486793518066400,68,124,91,86,61,15185,2197161691,2204440073,2203638308,2150679030,2177569033,2183208128,2178188352,2150287862,2762,2,16,47640
1338938589,5802,67.2200012207031200,23.8237991333007800,35.1687011718750000,243.9436035156250000,44.4196090698242200,23.7957191467285160,27.9963798522949220,67,122,94,85,58,15188,2203913581,2211307227,2209839177,2151306093,2182598345,2188562368,2182177014,2150749577,2595,2,16,252
1338938644,5809,64.7699966430664000,23.9547004699707030,35.1722984313964840,243.7519989013672000,40.2002906799316400,23.9264793395996100,27.9526691436767580,66,121,93,86,58,15178,2204982573,2211536658,2209451510,2151512365,2184095524,2189531300,2182380827,2150826176,2899,2,16,31431
1338938699,5804,62.9199981689453100,23.9965000152587900,35.1505012512207000,244.0292968750000000,39.1339111328125000,23.9595298767089840,27.9272098541259770,66,124,90,86,59,15187,2206558016,2212620214,2210113929,2151765257,2185768466,2190930834,2183087076,2150931382,3216,2,16,27628
1338938766,5808,61.3800010681152340,24.0193004608154300,35.1329002380371100,244.5496063232422000,37.2230110168457000,24.0187892913818360,27.8808498382568360,63,123,94,85,57,15187,2210791131,2216788379,2213928978,2152272530,2189233965,2194361755,2185531547,2151241508,23,2,16,41568
1338938896,5809,59.7099990844726560,24.0807991027832030,35.1236000061035160,245.3367004394531200,35.7313804626464840,24.0650501251220700,27.8279495239257800,63,126,93,86,54,15179,2221310281,2228115062,2224957659,2153553746,2198083766,2203864969,2192746578,2152051382,3189,1,17,40156
1338939071,5808,57.6599998474121100,24.1110000610351560,35.1203994750976560,245.3352050781250000,33.6862411499023440,24.1285095214843750,27.8028602600097660,62,123,94,85,56,15183,2249401170,2259938020,2257231579,2157054500,2217824557,2226160420,2210622299,2154234084,377,2,16,3394
1338939185,5806,54.8100013732910160,24.2535991668701170,35.0946006774902340,245.5270996093750000,30.2927494049072270,24.2338409423828120,27.7525100708007800,63,121,93,86,59,15174,2248049654,2255988233,2251708736,2157603840,2222306614,2228716096,2211032502,2154383094,465,2,16,42004
1338939240,5806,53.0600013732910160,24.4241008758544920,35.0842018127441400,244.8876953125000000,25.8727092742919920,24.3711204528808600,27.7260494232177730,62,121,93,85,58,15179,2254447350,2262487433,2257910198,2158918400,2228664932,2234553234,2214877120,2155008000,798,2,16,49571
1338939319,5808,51.5999984741210940,24.4536991119384770,35.0834999084472660,244.3932037353515600,23.1691398620605470,24.4551391601562500,27.7143497467041000,60,122,92,85,57,15175,2259634221,2267691867,2262640384,2160082075,2234729490,2239891803,2218104822,2155486208,1344,2,16,13732
1338939457,5811,49.1599998474121100,24.4752998352050780,35.0820999145507800,244.1219024658203000,22.4741096496582030,24.4767494201660160,27.7177505493164060,61,120,92,84,59,15173,2272278537,2280621385,2274488566,2162968749,2251267099,2254613092,2227380260,2156832658,1980,2,17,38706
1338939524,5804,46.7200012207031250,24.5002994537353500,35.0802001953125000,243.7489929199218800,21.2605991363525400,24.5144805908203120,27.7191200256347660,58,119,92,84,53,15175,2274377609,2281946240,2274919926,2164353371,2258809508,2260144539,2230072521,2157380288,2485,2,17,32120
1338939579,5804,44.7400016784668000,24.6884994506835940,35.0626983642578100,242.8728027343750000,16.0565299987792970,24.6763801574707030,27.6936302185058600,59,119,93,84,59,15175,2282680868,2289527753,2281985563,2167212525,2272637705,2272212333,2237649563,2158623734,2756,1,17,8259
1338939634,5811,43.1199989318847660,24.7117004394531250,35.0610008239746100,242.4862976074218800,14.7826404571533200,24.7160301208496100,27.6949405670166000,58,119,92,84,57,15178,2311471808,2322454061,2315630208,2174174838,2302253065,2302110006,2259684589,2161686418,2993,1,16,29494
1338939701,5808,41.0999984741210940,24.7201995849609380,35.0628013610839840,242.2429046630859400,14.4027204513549800,24.7278594970703120,27.7010898590087900,58,118,94,84,54,15174,2310147273,2319482870,2311931328,2175575469,2307420004,2304125001,2258846893,2161769316,3147,2,17,9272
1338939779,5805,37.8400001525878900,24.7336006164550780,35.0630989074707000,242.2483978271484400,14.0001802444458000,24.7403907775878900,27.6956996917724600,55,118,92,83,58,15171,2326836032,2335597458,2326674550,2182625856,2336100379,2328891712,2274135524,2164737508,3313,1,16,10336
1338939834,5807,34.7299995422363300,24.7586002349853500,35.0519981384277340,242.0789947509765600,12.9525804519653320,24.7730102539062500,27.6902694702148440,54,118,92,84,59,15172,2401214619,2419048109,2414992539,2211187629,2423049042,2415074358,2336432283,2175332050,3521,2,17,18518
1338939889,5807,31.6000003814697270,24.7719001770019530,35.0322990417480500,242.1921997070312500,12.4611396789550780,24.7883090972900400,27.6794395446777340,53,118,92,85,59,15176,2433910902,2454784109,2453526125,2229219419,2462713051,2452637595,2363292352,2181459282,620,2,15,43249
1338939944,5808,28.5900001525878900,24.7714996337890620,35.0197982788085940,242.1584930419922000,12.4060697555542000,24.7900295257568360,27.6801891326904300,53,116,89,82,54,15182,2402506477,2417258011,2414204617,2230022838,2437693202,2421380571,2336329252,2179147611,456,1,16,47412
1338939999,5806,25.5799999237060550,24.7733993530273440,35.0141983032226560,242.2454986572265600,12.2949304580688480,24.7934894561767580,27.6749095916748050,51,115,93,83,56,15182,2461507227,2484837202,2487746706,2266207533,2499944667,2481708361,2379307456,2189022427,290,1,16,29581
